Flag for Norway Weather past 2 weeks in Rygge, Norway

Now
34 °F

Dense fog.


Feels Like: 34 °F
Forecast: 26 / 41 °F
Wind: 1 mph from Northwest

Location: Rygge

Current Time: Mar 27, 2015 at 9:16:10 AM

Latest Report: Mar 27, 2015 at 8:00 AM


Visibility: 0 mi

Pressure: 29.78 "Hg

Humidity: 100%

Dew point: 34 °F

Location of RyggeLocation

Historic Weather in Rygge — Graph

°F

Rygge temperature yesterday

Maximum temperature yesterday: 34 °F (at 5:00 PM)
Minimum temperature yesterday: 28 °F (at 5:00 AM)
Average temperature yesterday: 31 °F

Past Weeks' High & Low Weather Summary

 TemperatureHumidityPressure
High51 °F (Mar 24, 3:00 PM)100% (Mar 13, 1:00 AM)30.87 "Hg (Mar 13, 1:00 AM)
Low24 °F (Mar 14, 5:00 AM)24% (Mar 13, 4:00 PM)29.50 "Hg (Mar 23, 4:00 PM)
Average37 °F77%30.32 "Hg
* Reported Mar 12 8:00 AM — Mar 27 8:00 AM, Rygge, Weather by CustomWeather, © 2015

Note: Actual official high and low records may vary slightly from our data, if they occured in-between our weather recording intervals... More about our weather records

Advertising

Rygge weather history for previous 24 hours

 ConditionsComfort  
Time TempWeatherWind HumidityBarometerVisibility
8:00 AM
Fri, Mar 27
34 °FDense fog.1 mph100%29.78 "Hg1 mi
7:00 AM33 °FDense fog.2 mph100%29.77 "Hg2 mi
6:00 AM33 °FLow clouds.2 mph100%29.76 "Hg0 mi
5:00 AM33 °FLow clouds.1 mph100%29.75 "Hg0 mi
3:00 AM33 °FDense fog.1 mph100%29.74 "Hg0 mi
2:00 AM33 °FLow clouds.1 mph100%29.74 "Hg0 mi
1:00 AM33 °FLow clouds.1 mph100%29.74 "Hg0 mi
12:00 AM33 °FDense fog.1 mph100%29.74 "Hg1 mi
11:00 PM
Thu, Mar 26
33 °FDrizzle. Overcast.1 mph100%29.72 "Hg0 mi
9:00 PM33 °FFog.2 mph100%29.72 "Hg2 mi
8:00 PM33 °FLow clouds.2 mph100%29.71 "Hg3 mi
7:00 PM34 °FSnow flurries. Low clouds.2 mph99%29.71 "Hg1 mi
6:00 PM34 °FRain showers. Low clouds.1 mph99%29.70 "Hg1 mi
5:00 PM34 °FFog.2 mph98%29.69 "Hg1 mi
4:00 PM34 °FLow clouds.2 mph98%29.69 "Hg4 mi
3:00 PM34 °FDrizzle. Overcast.2 mph98%29.69 "Hg4 mi
2:00 PM33 °FFreezing rain. Overcast.3 mph98%29.69 "Hg3 mi
1:00 PM33 °FLight snow. Dense fog.5 mph98%29.70 "Hg1 mi
12:00 PM32 °FSnow. Dense fog.7 mph98%29.71 "Hg1 mi
11:00 AM32 °FSnow. Dense fog.7 mph98%29.72 "Hg1 mi
10:00 AM32 °FSnow. Ice fog.9 mph99%29.72 "Hg1 mi
9:00 AM31 °FSnow. Ice fog.10 mph98%29.75 "Hg0 mi
Weather by CustomWeather, © 2015

See weather overviewHow to use our weather pages